Theta_e
292 291 291 291 291 291 291 291 291 291 291 291 290 290 290 289 289 289 288 288 288 288 287 287 287 287 287 287 287 287 287 287 287 287 287 287 286 286 286 286 286 285 285 285 286 286 286 286 286 286 286 286 286 285 285 285 285 285 285 285 285 285 284 283 283 284 285 285 285 285 285 285 286 287 287 287 287 287 288 288 288 288 288 288 288
292 291 291 291 291 291 291 291 291 290 290 290 290 289 289 289 288 288 288 288 288 287 287 287 287 287 287 287 287 287 287 287 287 287 286 286 286 286 285 285 285 285 285 285 285 285 285 285 285 285 285 285 285 285 285 285 285 285 285 284 284 284 283 282 282 282 284 285 285 284 284 283 285 285 285 286 286 287 287 287 287 287 288 288 288
291 291 291 291 291 291 290 290 290 290 289 289 289 288 288 288 288 288 288 288 287 287 287 287 287 287 287 287 287 287 287 287 286 286 286 285 285 285 285 285 285 285 285 285 285 285 285 285 285 285 285 285 285 285 285 285 284 284 284 284 284 284 283 281 281 281 282 284 284 283 282 282 283 283 283 284 285 285 286 286 287 287 287 287 288
291 291 291 291 290 290 290 290 289 289 289 288 288 288 288 288 288 288 287 287 287 287 287 287 286 286 287 287 287 287 286 286 286 285 285 285 285 285 285 285 285 285 285 285 285 285 285 284 284 284 284 284 284 284 284 284 284 284 284 284 283 283 283 282 281 281 280 282 284 283 281 281 282 282 282 283 283 284 284 285 285 285 285 286 286
291 291 290 290 290 290 290 289 289 288 288 288 288 288 288 287 287 287 287 287 287 287 286 286 286 286 286 286 286 286 286 286 285 285 284 284 284 284 284 284 284 284 284 285 284 284 284 284 284 284 284 284 284 284 284 284 283 283 283 283 282 282 282 281 281 280 280 281 283 283 281 280 281 281 281 282 282 283 283 283 284 284 284 284 285
290 291 290 290 290 289 289 289 289 288 288 288 288 288 287 287 287 287 287 287 287 286 286 286 286 286 286 286 286 286 286 285 285 284 284 284 284 284 284 284 284 284 284 284 284 284 284 284 284 284 284 284 283 283 283 283 283 282 282 282 281 281 281 280 279 279 279 279 280 281 281 280 280 280 280 281 281 282 282 283 283 283 284 284 284
290 290 290 290 290 289 289 289 289 288 288 288 288 288 288 287 287 287 287 287 287 286 286 286 286 286 286 286 286 285 285 284 284 284 284 284 284 284 284 284 284 284 284 284 284 284 284 283 283 283 283 283 283 283 282 282 282 282 281 281 280 279 279 278 277 277 277 277 278 278 278 278 278 279 280 280 281 281 282 282 283 283 283 284 284
290 290 290 290 289 289 289 289 289 289 289 288 288 288 288 287 287 287 287 287 286 286 286 286 286 286 286 286 285 284 284 284 284 284 284 284 284 284 284 284 284 284 284 284 283 283 283 283 283 283 283 282 282 282 282 281 281 281 280 280 279 278 278 277 276 275 275 275 276 276 276 276 277 278 278 279 280 281 281 282 282 282 283 283 283
290 290 290 290 289 289 289 289 289 289 289 288 288 288 288 288 288 287 287 287 286 286 286 286 286 286 286 285 284 284 283 283 284 284 284 284 284 284 284 284 284 284 283 283 283 283 283 283 282 282 282 282 281 281 281 280 280 279 279 278 278 277 276 275 274 274 274 274 275 275 276 276 276 277 277 277 278 278 279 279 279 280 281 281 282
290 290 290 290 289 289 289 289 289 289 289 288 288 288 288 288 288 288 287 287 286 286 286 286 286 286 285 284 283 283 283 283 283 283 283 283 283 283 284 283 283 283 283 283 283 282 282 282 282 282 281 281 281 280 280 279 279 278 278 277 276 275 274 273 273 273 273 274 274 274 275 275 275 276 276 276 277 277 277 277 278 278 279 279 280
290 290 290 290 290 289 289 289 289 289 289 288 288 288 288 288 288 288 287 287 286 286 286 286 286 285 284 283 283 283 283 283 283 283 283 283 283 283 283 283 283 283 282 282 282 282 282 281 281 281 281 280 280 279 279 278 278 277 277 276 275 274 273 272 272 273 273 273 273 274 274 274 274 275 275 276 276 276 276 277 277 278 278 278 279
290 290 290 290 290 289 289 289 289 289 289 289 288 288 288 288 288 287 287 287 286 286 285 285 285 284 283 283 283 283 283 283 283 283 283 283 282 283 283 283 282 282 282 282 281 281 281 281 280 280 280 280 279 278 278 278 277 277 276 276 275 274 274 273 273 273 273 273 273 273 274 274 274 274 275 275 275 276 276 276 276 277 277 278 278
290 290 290 290 290 289 289 289 289 289 289 289 288 288 288 288 287 287 287 286 286 285 285 285 285 283 283 283 283 282 282 283 283 282 282 282 282 282 282 282 282 281 281 281 281 280 280 280 280 280 279 279 278 278 277 277 276 276 276 275 275 274 274 274 274 274 274 274 274 274 274 274 274 274 275 275 275 275 275 276 276 276 277 277 278
290 290 290 290 290 290 289 289 289 289 289 289 288 288 288 287 287 287 287 286 286 285 285 285 284 283 282 282 282 282 282 282 282 282 282 282 282 282 282 281 281 281 281 280 280 280 279 279 279 279 279 278 278 277 276 276 275 275 274 274 274 274 274 274 274 275 275 274 274 274 274 274 274 275 275 275 275 276 276 276 277 277 277 277 277
290 290 290 290 290 290 289 289 289 289 289 288 288 287 287 287 287 287 286 286 286 285 285 284 283 282 282 282 282 282 282 282 282 282 282 281 281 281 281 281 281 280 280 280 279 279 278 278 278 278 278 278 277 276 275 275 274 273 273 273 273 273 274 274 275 275 275 275 275 275 275 275 275 275 276 276 276 277 277 277 277 277 277 277 277
290 290 290 290 290 290 290 289 289 289 288 288 287 287 287 287 287 287 286 286 286 285 285 284 282 282 282 282 282 282 282 282 282 282 281 281 281 281 280 280 280 280 280 279 279 278 278 277 277 277 277 277 277 276 274 273 272 272 272 273 273 274 274 274 275 275 275 275 276 276 276 276 276 276 277 277 277 277 277 277 277 277 276 276 276
290 290 290 290 290 290 290 289 289 289 288 288 287 287 287 287 287 286 286 286 286 285 284 283 282 282 282 282 282 282 282 282 281 281 281 281 280 280 280 280 280 279 279 278 278 277 277 277 276 276 276 276 275 274 273 273 273 273 273 274 274 274 275 275 275 275 276 276 276 276 277 277 277 277 277 277 277 277 276 276 276 276 276 276 276
289 290 290 290 290 290 290 289 289 288 288 288 288 287 287 287 286 286 286 286 286 285 284 283 282 281 281 282 282 282 282 281 281 281 280 280 280 279 279 279 279 279 278 277 277 277 276 276 276 275 275 274 274 273 273 273 273 274 274 274 275 275 275 276 276 276 276 276 276 276 276 276 276 276 276 276 276 275 276 276 276 276 276 276 276
289 289 290 290 290 290 290 289 289 288 288 288 287 287 287 286 286 286 286 286 286 285 283 282 281 281 281 281 281 281 281 281 281 280 280 279 279 279 279 278 278 278 277 277 276 276 276 276 275 274 273 273 273 273 273 274 274 274 275 275 275 275 276 276 276 276 276 276 276 276 276 276 275 275 275 275 275 275 275 275 275 275 275 275 275
289 288 289 290 290 290 290 289 288 288 288 288 287 287 287 286 286 286 286 286 285 284 282 281 281 281 281 281 281 281 281 281 280 280 279 279 278 278 278 277 277 277 276 276 276 275 275 274 274 273 273 272 273 273 274 274 275 275 275 275 276 276 276 276 276 276 276 276 276 276 276 275 275 275 275 275 275 275 276 275 275 274 275 275 275
288 288 289 290 290 290 289 289 288 288 288 288 287 287 286 286 286 286 286 285 285 283 282 281 281 281 281 281 281 280 280 280 280 279 279 278 278 277 277 276 276 276 275 274 273 273 273 272 272 272 272 273 273 273 274 275 276 276 276 276 276 276 276 276 276 276 276 276 276 276 275 275 275 275 275 275 275 275 276 275 275 274 274 274 274
289 289 290 290 290 290 289 288 288 288 288 287 287 287 286 286 286 285 285 285 284 282 281 281 281 281 281 281 280 280 280 279 279 278 278 278 277 277 276 276 275 274 273 272 272 272 272 272 272 272 272 273 274 274 275 275 276 276 275 275 275 275 275 275 275 275 275 275 275 275 275 275 275 275 275 275 275 276 276 275 275 274 274 273 273
290 290 290 290 290 289 289 288 288 287 287 287 287 286 286 285 285 285 285 285 283 282 281 280 281 281 281 280 280 279 279 278 278 278 277 277 277 276 276 275 275 273 272 272 272 272 272 272 272 272 273 274 274 274 274 274 274 274 274 274 274 274 274 275 275 275 275 275 275 275 275 275 275 275 275 276 276 276 276 276 276 275 274 273 273
290 290 290 290 289 289 288 288 288 287 287 287 287 286 285 285 285 285 285 284 282 281 280 280 280 280 280 280 279 279 278 278 277 277 277 277 277 276 275 275 274 273 272 272 272 272 272 272 272 273 273 273 274 274 274 274 273 273 273 274 274 274 274 274 274 274 274 274 274 275 275 275 275 275 276 276 276 276 276 276 276 276 275 274 274
290 290 290 290 289 289 288 288 287 287 287 287 286 286 285 285 285 285 284 283 281 280 280 280 280 280 280 279 278 278 277 277 277 276 276 276 276 276 275 274 273 272 272 272 272 272 272 272 273 273 274 274 274 274 274 274 274 273 273 273 273 273 273 273 274 274 274 274 274 274 275 275 275 275 275 275 276 276 276 276 276 276 275 275 274
290 290 290 289 289 288 288 287 287 287 287 286 286 285 285 285 285 284 283 281 280 280 280 279 279 279 279 278 278 277 277 276 276 276 276 276 276 275 274 273 272 271 271 272 272 272 273 273 273 273 274 274 274 274 274 274 273 273 273 273 273 273 273 273 273 273 273 273 273 273 274 274 275 275 275 275 275 275 275 275 275 275 275 275 274
290 289 289 289 288 288 287 287 287 287 287 286 285 285 285 285 284 284 282 280 279 279 279 279 279 278 278 277 277 276 276 276 276 276 276 276 275 275 273 272 271 271 271 272 272 273 272 272 273 273 273 273 273 273 273 273 273 273 273 272 272 272 272 271 271 272 272 272 272 273 273 273 274 274 274 274 274 275 275 274 274 274 274 274 274
290 289 289 288 288 287 287 287 287 287 286 285 285 285 285 284 284 283 281 279 279 279 279 278 278 277 277 276 276 276 276 276 275 275 275 275 274 273 272 271 270 270 271 271 272 272 272 272 272 272 272 273 273 273 273 273 273 273 273 272 272 272 271 271 271 271 271 272 272 272 273 273 273 273 273 274 274 274 274 273 272 273 273 274 274
289 288 288 288 287 287 287 287 287 286 285 285 285 285 284 284 283 282 280 279 279 278 278 278 277 276 276 276 276 276 276 276 275 274 274 273 272 271 271 271 270 270 270 271 271 272 272 271 272 272 272 272 273 272 273 273 272 272 272 271 271 271 271 271 271 271 271 271 271 272 272 272 273 273 273 273 273 274 273 273 272 272 273 273 274
288 288 288 287 287 286 286 286 286 285 284 284 284 284 284 283 282 280 279 278 278 278 277 277 276 276 276 275 275 275 275 274 274 273 273 273 271 271 270 270 270 271 271 271 271 271 271 271 271 271 272 272 272 272 272 272 272 272 272 271 271 271 270 270 270 270 270 270 271 271 271 272 272 272 272 273 273 273 273 272 272 272 272 273 274
288 287 287 287 286 286 286 286 285 285 284 284 284 284 283 282 281 279 278 278 277 277 277 276 275 275 274 274 274 273 273 273 273 273 273 272 271 270 270 270 271 271 271 271 271 271 271 271 271 271 271 271 271 271 271 271 271 271 271 271 271 270 270 270 269 269 270 270 270 271 271 271 271 271 271 271 272 272 272 272 272 271 271 272 273
287 287 286 286 285 285 285 285 285 284 284 284 284 283 282 280 279 278 278 277 277 276 276 275 274 274 273 273 273 273 273 273 273 272 272 271 270 270 271 272 271 271 271 271 271 271 270 271 271 271 271 271 271 271 271 271 271 271 271 271 271 270 270 269 269 269 270 270 270 270 270 269 269 269 270 270 270 270 271 271 271 271 271 271 272
286 286 285 285 285 285 285 285 284 284 284 284 283 282 281 279 278 277 277 276 276 275 275 274 274 273 273 273 272 272 272 272 272 272 272 270 270 271 272 272 271 271 271 271 271 270 271 271 271 271 271 271 271 271 271 271 271 271 271 271 271 271 270 270 270 270 270 270 269 269 269 269 269 269 269 269 270 270 271 271 271 271 271 271 272
285 285 284 284 285 284 284 284 284 284 284 283 283 281 279 278 277 277 276 276 275 274 274 273 273 273 273 272 272 272 272 272 272 272 271 271 271 272 272 271 271 271 271 271 270 271 271 271 271 271 271 271 271 271 271 271 271 271 271 271 271 271 271 271 271 270 270 269 269 269 269 269 269 269 269 269 270 270 271 271 271 271 271 271 272
285 284 284 284 284 284 284 284 284 284 283 282 281 279 278 277 276 276 276 275 275 274 274 272 272 272 272 272 272 272 271 271 271 271 271 271 272 272 271 271 271 270 270 270 271 271 271 271 271 271 271 271 271 271 271 271 271 271 271 271 271 271 271 271 271 270 270 269 269 269 269 269 269 269 269 269 270 270 270 271 271 271 271 271 271
284 284 284 284 284 284 284 284 283 283 282 281 279 277 276 276 276 275 275 274 274 274 273 272 271 271 271 271 271 271 271 271 271 271 271 271 271 271 270 271 271 270 270 270 270 270 271 271 271 271 271 271 271 271 271 271 271 270 270 271 271 272 272 271 270 269 268 268 268 269 269 269 269 269 269 269 270 270 270 270 270 270 271 271 271
283 283 283 283 284 284 284 283 283 282 281 279 277 276 276 275 275 274 274 274 273 273 272 272 272 271 271 271 271 271 271 271 270 270 270 270 270 270 270 270 270 270 270 270 270 270 270 270 270 270 270 270 270 270 270 270 270 270 270 270 271 271 272 271 269 267 267 268 268 269 269 269 269 269 269 270 270 270 270 270 270 270 270 271 271
283 283 283 283 284 283 283 283 282 280 278 277 276 276 275 275 274 274 273 273 272 272 271 271 271 271 271 271 270 270 270 270 270 270 270 270 270 270 270 270 270 269 269 269 269 270 269 269 269 269 270 270 270 270 270 270 270 270 270 270 270 271 271 271 269 267 267 268 268 269 269 269 269 269 269 270 270 270 270 270 270 270 271 271 271
282 283 283 283 283 283 282 281 280 278 277 276 275 275 274 274 274 273 273 272 272 271 271 271 271 271 271 271 270 270 270 270 270 270 269 269 269 269 269 269 269 269 269 269 269 269 269 269 269 269 269 269 269 269 269 270 270 270 270 270 270 270 271 271 270 268 268 268 268 268 269 269 269 269 269 270 270 270 270 270 270 270 271 271 271
282 283 283 283 282 282 281 279 277 276 276 275 275 274 274 273 273 272 272 272 271 271 271 271 270 270 270 270 270 270 270 270 270 270 269 269 269 269 269 269 269 269 269 269 269 269 269 269 269 269 269 269 269 269 269 269 269 270 270 270 270 270 270 271 270 269 268 268 268 268 268 269 269 269 270 270 270 270 270 270 270 271 271 271 271
282 282 282 282 281 280 278 277 276 276 275 275 274 274 273 273 272 272 271 271 271 271 270 270 270 270 270 270 270 270 270 270 270 269 269 269 269 269 269 269 269 269 269 269 269 269 269 269 269 269 269 269 269 269 269 269 269 269 269 269 270 269 270 270 270 269 268 268 268 269 269 269 269 269 270 270 270 270 270 270 270 271 271 271 271
282 282 281 280 279 277 276 276 275 275 275 274 274 273 273 272 272 272 271 271 271 270 270 270 269 269 269 269 269 269 269 270 269 269 269 269 269 269 269 268 268 268 268 269 269 269 269 269 269 269 269 269 269 269 269 269 269 269 269 269 269 269 269 270 270 269 268 268 268 269 269 269 269 269 269 270 270 270 270 270 270 270 271 271 271
281 281 280 278 277 276 276 275 275 274 274 274 273 273 272 272 271 271 271 271 270 270 270 270 269 269 269 269 269 269 269 269 269 269 269 268 268 268 268 268 268 268 268 268 268 269 269 269 269 269 269 269 269 269 269 269 269 269 269 269 269 269 269 269 269 269 269 268 268 269 269 269 269 269 269 270 270 270 270 270 270 270 270 271 271
280 279 278 277 276 275 275 275 274 274 274 273 273 272 272 271 271 271 270 270 270 269 269 269 269 269 269 268 268 268 269 269 269 269 268 268 268 268 268 268 268 268 268 268 268 268 268 269 269 269 269 269 269 269 269 269 269 269 269 269 269 269 269 269 269 269 268 268 268 268 268 268 268 269 269 269 269 270 270 270 270 270 270 271 271
279 277 276 276 275 275 275 274 274 274 273 273 272 272 271 271 270 270 270 270 269 269 269 269 269 269 269 268 268 268 268 268 269 269 268 268 268 268 268 268 268 268 268 268 268 268 268 268 269 269 269 269 269 269 269 269 269 269 269 269 269 269 269 269 269 268 268 268 268 267 267 267 268 268 268 269 269 269 270 270 270 270 270 270 271
277 276 276 275 275 274 274 274 273 273 273 272 272 271 271 270 270 269 269 269 269 268 268 268 268 268 268 268 268 268 268 268 268 268 268 268 268 268 268 268 268 268 268 268 268 268 268 268 269 269 269 269 269 269 269 269 269 269 269 269 269 269 269 268 268 268 268 268 268 267 267 267 267 267 268 268 269 269 270 270 270 270 270 270 270
276 275 275 274 274 273 273 273 273 272 272 272 271 271 270 270 269 269 269 269 268 268 268 268 268 268 268 268 268 268 268 268 268 268 268 268 268 268 268 268 268 268 268 268 268 268 268 268 268 268 269 269 269 269 269 269 269 269 269 269 269 269 268 268 268 268 267 267 267 267 266 267 267 267 267 268 268 269 269 270 270 270 270 270 270
275 275 274 273 273 272 272 272 272 272 272 271 271 270 270 269 269 269 269 268 268 268 267 267 267 267 268 268 268 268 268 268 268 268 268 268 268 268 268 268 267 267 267 267 267 267 267 268 268 268 268 268 268 268 268 268 268 269 268 268 268 268 268 268 268 268 267 267 267 266 266 266 267 267 267 267 268 268 269 269 270 270 270 270 270
274 274 273 272 272 271 271 271 271 271 271 271 270 270 269 269 269 269 268 268 267 267 267 267 267 267 267 267 267 267 268 268 268 268 268 268 268 267 267 267 267 267 267 267 267 267 267 267 267 267 267 268 268 268 268 268 268 268 268 268 268 268 268 268 268 268 267 267 266 266 266 266 267 267 267 267 267 268 268 269 269 270 270 270 270
273 273 272 271 271 270 270 270 270 270 270 270 270 269 269 269 268 268 268 267 267 267 266 266 266 266 267 267 267 267 267 267 267 267 267 267 267 267 267 267 267 267 267 268 268 267 267 267 267 267 267 267 267 267 267 267 267 267 267 267 267 267 267 267 268 267 267 266 266 266 266 266 267 267 267 267 267 267 268 268 269 269 269 270 270
273 272 271 271 270 270 270 270 270 270 270 269 269 269 269 268 268 268 267 267 267 266 266 266 266 266 266 266 267 267 267 267 267 267 267 267 267 267 268 268 268 268 268 268 268 268 268 268 268 268 268 268 268 268 267 267 267 267 267 267 267 267 267 267 267 267 267 266 266 266 266 266 267 267 266 266 267 267 267 268 268 268 269 269 269
Wind_Speed
13 12 11 10 9 7 6 4 3 2 2 4 6 8 9 11 12 13 15 16 16 17 18 18 18 19 19 19 19 19 20 20 21 21 22 22 23 23 25 26 26 28 28 29 30 31 32 33 33 34 34 35 36 36 37 37 38 39 38 39 40 38 38 36 38 49 53 48 48 51 49 49 53 53 52 54 54 52 50 48 46 48 49 49 49
14 13 12 11 9 7 6 4 3 2 4 5 7 9 10 12 13 15 16 17 18 19 20 20 21 21 21 21 21 21 21 21 22 22 23 23 24 25 26 27 28 29 30 31 32 32 33 34 34 36 36 37 38 38 39 40 39 41 40 40 41 40 37 37 37 43 51 52 50 51 48 44 48 52 50 52 54 54 54 53 49 48 48 48 49
15 14 13 11 9 8 6 4 3 3 5 6 8 9 11 13 14 16 17 18 19 20 21 22 22 22 22 22 22 22 23 23 23 24 24 25 26 27 28 29 30 31 31 32 33 33 34 34 35 36 37 37 38 39 39 40 40 41 42 41 41 42 40 37 37 39 46 52 52 49 46 40 40 46 48 48 52 51 51 53 52 50 49 48 48
16 15 13 12 10 7 5 3 3 4 6 7 8 10 12 14 15 17 18 19 21 21 22 22 22 22 22 22 22 23 23 24 24 25 26 27 28 29 30 30 31 32 32 32 33 34 35 36 36 37 38 38 39 39 39 40 40 40 41 41 41 42 41 39 38 37 41 49 52 49 45 38 32 35 38 40 46 48 47 48 49 49 49 48 47
17 16 14 12 10 7 5 3 3 5 6 8 9 11 13 15 16 18 19 21 22 22 22 23 22 23 23 23 23 23 24 25 25 26 28 28 29 30 31 32 32 32 33 33 34 35 36 37 37 38 38 39 40 40 41 41 41 41 41 41 40 40 41 39 38 38 38 45 51 51 47 39 29 27 28 29 36 41 40 37 39 43 46 47 46
19 17 15 12 10 7 5 3 3 5 7 9 11 12 14 16 17 19 21 22 23 23 23 24 24 24 24 24 24 25 25 26 27 28 29 30 30 31 32 32 33 33 34 35 35 36 36 36 37 37 38 39 39 40 41 41 41 41 41 40 39 38 39 38 35 36 37 40 45 47 45 37 29 26 25 24 26 32 32 30 31 34 36 37 39
20 18 16 13 11 8 6 5 5 6 8 10 12 14 15 17 19 21 22 23 24 24 24 25 25 25 25 25 25 25 26 27 28 29 30 31 32 33 33 34 34 35 35 36 36 37 37 37 37 37 37 38 39 39 40 40 40 40 39 39 38 36 36 36 33 33 35 37 39 40 39 36 29 25 24 22 22 24 24 26 28 27 25 26 32
21 19 16 14 12 10 8 7 7 7 9 11 13 15 17 19 21 22 24 25 25 25 25 25 25 25 25 25 25 25 27 28 29 30 31 32 33 34 34 35 35 36 36 37 38 38 38 38 38 38 38 38 38 38 39 39 38 38 37 35 35 34 33 33 32 32 33 35 36 34 34 33 29 25 22 21 22 21 19 22 26 27 25 24 26
22 20 18 15 13 12 10 9 9 9 10 12 14 17 19 21 22 24 26 27 27 26 26 26 25 25 25 25 25 26 27 28 29 30 31 33 33 34 35 35 36 37 38 38 39 39 39 39 39 39 39 38 38 37 37 36 35 35 34 32 32 31 31 30 29 29 29 30 30 27 27 27 25 23 22 20 21 24 24 25 30 32 31 32 32
23 21 19 17 15 13 12 11 11 11 11 13 15 18 20 22 24 25 27 28 28 27 27 26 26 25 25 25 26 26 27 28 29 30 31 32 33 34 35 36 37 38 38 39 39 39 39 39 39 39 39 38 37 36 35 34 32 30 29 28 27 27 27 27 26 25 25 26 26 24 25 26 24 23 24 22 21 24 25 24 26 28 29 32 38
24 22 20 18 16 15 14 13 12 12 13 14 17 20 22 23 24 26 28 29 29 28 27 26 26 25 25 26 26 27 27 28 29 30 30 31 32 34 35 36 37 38 38 39 39 39 39 40 40 39 39 37 36 34 33 31 29 27 25 24 23 23 22 23 24 24 24 25 26 24 25 27 27 24 24 23 22 23 24 23 24 26 25 26 31
26 23 21 19 18 17 16 15 14 14 14 16 20 22 22 23 25 27 28 29 29 28 28 27 26 26 26 26 27 27 27 28 29 30 30 31 32 33 35 36 37 38 38 38 39 39 40 40 39 39 38 36 35 32 30 29 26 25 24 23 21 20 18 19 22 24 25 26 27 25 25 27 27 24 22 22 23 23 24 25 25 26 27 26 29
27 24 22 21 19 18 18 17 15 15 16 19 22 22 23 23 25 27 29 29 29 29 28 27 26 27 27 27 27 27 28 29 29 29 30 31 32 33 35 36 37 37 37 38 38 38 39 39 39 38 37 35 33 30 28 27 26 25 24 23 21 19 18 17 18 20 23 25 27 27 26 25 25 23 21 22 25 27 27 29 28 27 28 28 30
28 25 23 21 20 20 20 19 16 16 18 21 23 22 23 24 26 28 29 30 30 30 29 28 27 27 28 28 28 28 28 29 29 30 31 31 32 33 35 36 36 37 37 37 38 38 38 38 38 37 36 34 32 28 26 25 25 25 24 23 23 22 20 19 18 19 21 24 28 29 28 27 26 26 25 26 30 32 32 33 32 30 31 31 32
29 26 24 22 22 22 22 20 18 18 21 22 23 23 24 25 27 29 30 30 31 30 29 28 28 28 28 28 28 28 28 29 30 30 31 32 33 34 35 36 36 37 37 37 37 37 37 37 37 36 35 33 30 26 24 23 23 25 26 27 27 26 25 24 22 22 25 27 29 31 32 31 30 30 30 31 33 33 31 33 34 34 35 36 33
30 27 24 23 24 24 23 21 20 21 22 23 23 24 25 26 28 30 31 31 31 31 30 29 29 29 29 29 29 29 29 29 30 31 31 32 33 35 36 36 37 37 37 37 37 37 36 36 36 35 34 32 29 25 21 21 23 27 29 31 32 31 31 29 27 27 29 30 31 32 33 32 31 31 31 31 32 32 31 34 35 33 34 35 33
30 27 26 25 26 26 25 23 22 22 23 23 24 25 26 27 29 30 31 32 32 32 30 29 29 30 29 29 30 30 30 30 30 31 32 33 34 35 35 36 37 37 37 36 36 36 35 34 33 33 32 30 29 25 22 22 26 29 32 34 34 34 34 33 33 33 32 31 31 30 30 30 30 30 30 31 32 32 32 33 32 30 31 32 32
32 29 27 28 28 28 26 24 23 23 23 23 25 26 27 28 29 31 32 33 33 32 31 30 30 30 30 30 30 31 31 30 31 32 32 32 33 33 34 35 36 36 36 35 34 34 33 32 30 30 30 28 27 26 25 26 29 31 32 33 35 36 37 37 38 38 36 34 32 30 29 31 31 31 32 33 33 31 29 30 30 29 30 31 31
33 30 29 29 29 29 27 25 24 23 23 24 26 27 27 28 30 31 32 33 33 32 31 30 31 30 30 30 30 31 31 31 31 32 31 31 31 32 33 34 35 35 34 33 33 32 32 31 29 28 27 26 25 26 26 27 28 29 30 33 37 39 39 39 39 37 35 33 32 30 28 27 29 33 35 36 34 31 29 28 27 26 28 29 28
31 31 31 30 30 29 27 25 24 23 24 26 27 28 28 29 31 32 32 33 32 32 31 31 31 30 30 30 30 31 31 31 31 31 30 30 29 30 31 32 32 33 32 31 32 32 31 31 30 28 26 24 24 26 26 25 26 28 32 35 38 38 37 36 35 33 31 31 31 30 29 29 32 36 38 37 34 33 31 29 26 24 26 28 27
29 31 31 31 30 28 26 25 24 24 25 27 28 28 29 30 31 32 32 32 32 31 31 31 31 31 30 30 30 30 31 31 31 30 29 28 28 28 29 29 29 29 28 28 29 29 30 29 28 27 25 25 25 27 28 27 28 31 34 33 33 33 32 32 33 34 34 35 35 36 36 37 39 41 39 37 34 32 30 28 26 23 23 25 27
29 30 30 30 29 27 26 25 24 25 26 27 28 29 30 31 31 32 32 32 32 31 31 31 31 31 30 30 30 30 30 30 30 29 27 26 26 26 26 26 25 24 24 25 26 27 28 27 27 27 27 28 29 30 31 30 30 32 32 30 29 31 32 34 37 39 39 38 39 39 39 39 39 39 37 34 32 29 28 28 27 25 23 24 26
28 29 30 29 28 27 25 25 25 26 27 27 28 30 31 31 31 31 31 32 32 31 31 31 31 31 31 31 30 30 29 28 27 26 25 25 25 25 25 23 21 19 21 23 25 26 26 26 27 29 30 30 31 31 31 30 31 32 31 30 31 32 33 34 36 36 35 34 34 35 35 34 34 33 32 31 31 30 31 31 30 27 25 25 25
28 29 30 29 28 26 25 25 26 26 27 27 29 30 31 31 31 31 32 32 32 31 31 31 30 31 31 31 31 30 28 27 25 23 23 24 24 24 23 21 18 17 19 21 22 23 24 26 27 29 29 30 30 30 29 28 29 30 30 30 31 32 32 32 32 31 31 30 29 29 29 30 30 30 30 31 32 33 33 33 31 27 27 28 27
29 29 30 28 27 26 25 26 26 26 26 27 30 30 31 31 31 31 31 32 32 31 31 30 30 31 32 32 32 30 28 26 24 22 22 22 23 22 20 19 17 16 17 19 21 22 24 25 26 26 27 27 27 27 26 25 25 25 26 27 28 28 28 28 28 28 28 27 27 27 28 28 29 29 31 32 33 34 33 31 29 28 29 30 30
30 30 30 28 28 27 26 26 25 25 26 28 29 30 31 31 32 31 31 31 31 31 31 30 30 31 32 32 32 30 28 25 22 21 21 21 21 21 19 19 18 17 19 22 23 23 23 23 24 24 25 25 25 25 25 24 23 23 23 23 24 24 24 24 24 24 25 25 25 26 27 28 28 29 30 31 31 31 30 29 28 28 29 30 31
33 32 31 31 30 28 26 25 24 25 27 28 29 30 31 32 32 31 31 31 31 31 30 30 30 31 32 31 31 29 27 24 21 19 19 20 20 20 19 20 21 22 24 27 26 24 23 23 23 24 24 24 24 23 23 22 21 21 20 20 20 20 20 20 20 21 22 22 23 24 25 26 27 27 28 28 29 29 28 26 26 27 28 28 28
35 34 33 32 30 27 25 24 25 27 28 28 28 30 31 32 32 31 30 31 31 30 30 30 30 30 31 31 30 29 27 22 19 18 19 18 18 18 19 19 21 24 27 28 27 25 24 24 24 24 23 23 22 21 20 20 19 19 19 19 19 19 19 19 18 18 19 19 20 21 22 23 24 24 25 26 26 27 26 24 24 25 26 25 26
37 36 34 33 30 27 25 26 27 28 28 27 28 30 31 32 32 31 30 30 30 30 30 30 29 29 30 29 28 28 26 22 18 16 17 16 15 16 17 18 19 23 26 27 26 25 24 23 24 23 22 21 20 19 18 18 17 18 19 19 19 19 19 19 19 18 18 18 19 19 20 21 22 22 22 24 24 24 23 23 24 25 25 24 26
38 37 35 33 30 27 26 27 28 28 27 28 28 30 31 31 31 31 30 29 29 29 30 30 29 29 29 28 27 26 24 22 18 16 16 15 14 14 16 18 20 23 25 25 24 23 23 23 23 22 21 20 18 18 18 18 18 19 20 20 21 20 19 19 19 19 19 19 19 19 20 20 20 21 21 22 23 23 23 23 24 24 24 24 25
38 36 34 32 30 28 27 27 27 27 28 28 29 30 31 30 31 31 31 29 28 28 29 29 28 27 27 27 26 25 22 19 18 17 16 15 15 16 19 21 22 22 23 22 22 22 22 22 21 20 19 18 18 18 19 20 20 20 21 21 21 20 19 19 19 19 19 19 19 19 20 21 21 22 22 23 24 24 24 24 24 23 22 23 24
36 34 33 32 30 28 27 25 25 27 28 29 30 31 30 30 29 29 30 29 28 27 27 28 27 26 25 24 24 23 20 17 16 17 16 15 15 19 21 21 20 20 21 21 20 20 21 21 20 19 18 18 18 18 19 20 21 22 22 22 21 20 18 18 18 18 19 20 21 22 23 23 23 23 23 23 24 25 26 26 25 24 23 22 23
33 33 32 31 30 28 25 25 26 27 29 30 30 31 31 30 29 27 27 27 26 26 26 27 26 26 25 23 22 21 19 16 15 16 15 15 18 21 21 18 17 18 19 19 18 19 20 19 18 18 18 18 18 19 19 20 21 22 22 22 21 19 17 17 18 19 21 23 25 25 25 25 24 24 24 24 24 25 26 25 25 24 23 23 23
31 31 31 30 29 27 25 25 26 28 29 30 31 30 30 30 29 27 26 24 24 23 24 25 26 25 23 22 21 19 17 16 15 14 15 18 20 20 18 16 16 17 17 17 17 18 18 17 17 17 17 17 18 18 19 20 20 21 22 21 20 18 17 17 19 22 25 26 26 26 26 25 25 24 24 24 24 25 25 25 24 24 23 24 24
29 30 31 30 28 26 25 26 27 28 29 30 30 30 29 28 28 27 26 25 23 22 21 21 22 23 23 21 20 18 17 16 15 14 17 20 19 17 16 15 15 14 15 15 16 16 16 16 16 16 16 17 17 17 17 18 19 20 21 21 20 19 18 18 21 24 26 27 28 28 27 27 26 25 25 25 25 25 25 24 24 24 24 25 25
28 29 29 27 25 25 26 26 27 28 29 29 29 28 28 27 26 26 25 25 24 22 20 18 19 20 21 21 19 17 17 16 15 15 17 19 17 16 15 15 13 13 13 13 13 13 14 14 15 15 15 15 16 16 16 17 18 19 20 21 21 20 19 20 23 24 26 27 28 28 28 27 27 26 26 26 25 25 25 25 24 25 25 25 25
27 27 26 25 24 25 26 27 27 28 28 28 27 26 26 25 24 24 23 23 22 21 19 18 17 17 19 20 18 16 15 15 15 16 17 17 16 15 15 14 13 13 13 12 11 11 11 12 13 14 14 15 15 15 16 16 17 18 19 20 21 20 20 20 21 22 23 25 27 27 27 27 27 27 26 26 26 26 25 25 25 26 26 25 25
26 25 24 24 25 26 26 26 27 27 27 26 25 24 24 23 22 22 21 21 20 19 18 18 17 17 17 19 19 17 15 15 15 15 16 15 15 15 14 13 13 13 13 12 11 11 11 11 12 13 14 14 15 15 16 17 17 18 19 20 21 21 20 19 19 20 23 25 26 27 27 27 27 27 27 26 26 26 26 26 25 26 26 25 25
24 24 24 25 25 26 26 26 26 26 24 24 23 22 21 21 20 20 19 19 18 18 17 17 17 17 18 18 18 17 16 15 14 14 15 15 14 14 13 12 13 13 14 13 13 12 12 12 13 13 14 15 15 15 16 17 17 18 19 20 21 22 21 20 19 20 23 25 26 27 28 28 28 27 27 27 26 26 26 25 25 25 25 25 25
23 24 25 25 25 25 25 25 24 23 22 22 21 20 19 19 18 18 18 18 17 17 17 17 16 17 18 19 19 18 17 15 14 14 14 14 14 14 13 13 13 14 14 14 14 13 13 13 13 14 14 15 16 16 17 17 18 18 19 19 20 21 22 21 19 20 22 24 26 27 27 28 28 28 28 27 26 25 25 25 24 24 24 23 23
24 25 26 26 25 25 24 23 22 21 21 20 19 18 17 17 17 17 17 17 17 17 17 17 16 16 18 19 19 19 19 17 14 14 14 14 14 14 14 14 14 15 15 15 15 15 14 14 14 14 15 16 16 17 17 18 18 19 19 19 20 21 21 21 20 19 21 24 25 26 27 27 28 28 28 27 26 26 25 24 24 24 23 22 21
25 25 25 25 24 23 22 21 20 20 19 18 17 17 16 16 16 16 17 17 17 17 17 16 16 16 17 18 18 19 19 18 16 15 14 14 15 15 15 16 16 16 16 17 17 16 16 15 15 15 15 16 17 17 18 19 19 19 20 20 20 20 21 22 21 20 20 22 24 25 27 27 28 28 28 28 28 27 26 26 25 24 24 23 22
24 25 25 24 23 22 21 20 19 18 17 16 16 16 16 15 16 16 16 17 17 18 17 17 16 16 17 17 18 19 19 18 18 17 16 16 16 16 17 17 17 18 18 18 18 18 18 17 17 16 16 17 17 18 19 19 20 20 20 20 20 20 21 22 21 21 20 21 23 25 27 28 28 28 28 28 29 28 28 27 26 25 25 25 24
24 25 24 23 22 21 20 19 18 16 16 16 15 15 15 15 16 16 16 17 17 18 17 17 16 16 16 17 18 18 18 18 18 18 18 18 18 18 18 19 19 19 19 19 19 20 20 19 19 18 18 18 18 19 19 20 20 20 21 21 21 21 21 21 21 20 20 21 22 25 27 28 29 29 29 29 28 28 28 27 27 26 26 25 25
24 24 24 22 21 20 19 18 17 16 15 15 14 15 15 15 16 16 16 17 17 17 17 17 17 17 17 17 18 18 18 18 18 18 19 19 19 19 20 20 20 20 20 20 20 21 21 22 21 21 20 20 20 20 20 20 21 21 21 21 21 21 21 21 21 20 19 20 21 23 26 28 28 29 29 29 28 27 27 27 26 26 26 25 25
24 23 22 21 20 19 18 17 16 16 15 15 14 15 15 16 16 16 17 17 17 18 18 17 17 17 17 17 18 18 18 18 19 19 19 19 20 20 20 21 21 21 21 21 22 22 23 23 24 24 23 23 22 22 21 21 21 22 22 21 21 21 21 22 21 20 19 20 20 20 23 26 27 28 28 28 27 26 26 25 25 24 24 25 24
23 22 21 20 19 18 17 17 16 15 15 15 15 15 16 16 17 17 17 17 18 18 19 18 18 18 18 18 18 18 18 19 19 19 19 20 20 20 21 22 22 22 22 22 22 23 23 24 25 25 25 25 25 24 24 23 23 23 22 22 22 21 21 21 21 21 20 20 20 19 20 23 26 27 27 27 26 26 25 25 24 23 23 23 24
22 21 20 19 18 17 17 17 16 16 16 16 16 16 16 17 17 17 18 18 19 20 20 20 19 19 19 19 19 19 19 19 20 20 20 20 20 20 21 22 22 22 22 22 22 23 23 24 25 25 26 26 26 26 26 25 24 24 23 23 23 22 21 21 21 21 20 19 19 18 18 21 23 25 26 26 25 25 24 24 23 22 22 22 22
20 20 19 18 17 17 17 17 17 16 16 16 16 16 17 17 18 18 19 19 20 21 21 21 21 20 20 20 20 20 20 20 20 20 20 20 20 20 21 21 21 22 22 22 22 22 23 23 24 24 25 26 26 26 26 26 25 25 24 24 23 23 22 21 21 20 19 18 17 18 19 20 20 22 23 24 24 23 23 22 22 22 21 21 21
19 19 18 17 17 17 18 18 17 16 17 17 17 17 18 18 19 19 20 20 21 21 21 21 21 21 21 21 20 20 21 21 20 20 19 19 19 19 20 20 20 21 21 22 21 21 22 22 23 23 24 24 25 25 26 26 25 25 25 24 24 23 22 22 21 19 18 18 17 18 20 21 19 19 21 23 23 22 22 21 21 21 21 21 20
18 18 18 17 18 18 18 18 17 17 17 18 18 18 19 19 20 20 21 21 21 21 21 21 22 21 20 20 20 20 20 20 20 19 19 18 18 19 19 19 20 20 21 21 21 21 22 23 23 23 23 23 24 24 24 25 25 24 24 24 23 23 22 22 21 19 18 18 18 19 21 21 18 18 19 21 22 21 21 20 20 20 20 19 19
Wind_Direction
194 192 188 186 187 187 187 192 202 242 301 326 333 333 332 331 331 331 331 330 330 330 330 330 329 327 327 325 324 323 321 321 320 320 320 319 320 320 320 321 321 321 321 320 320 319 319 319 318 318 317 316 316 315 314 313 312 311 310 309 308 307 306 303 298 299 301 301 302 303 303 303 302 301 302 301 300 299 298 296 294 294 293 292 290
199 196 195 193 194 194 196 209 235 282 319 331 333 332 330 330 329 327 327 326 326 327 326 326 325 324 323 322 321 320 319 319 318 319 319 319 320 320 320 321 321 321 321 320 320 320 319 319 319 318 318 317 317 316 315 314 313 312 311 310 309 308 306 303 299 299 300 302 302 302 302 302 302 302 302 301 301 301 300 298 297 294 292 290 290
202 199 199 198 198 201 209 228 267 310 329 332 331 330 328 326 324 323 323 323 323 323 323 322 321 320 320 319 319 319 318 318 318 319 319 320 320 320 321 321 321 321 321 321 321 320 319 319 318 318 317 316 315 315 314 313 312 311 310 309 308 307 307 305 302 300 301 302 303 303 303 301 300 301 301 300 300 301 300 300 300 298 295 292 289
205 203 202 203 204 207 218 245 294 323 331 331 328 326 325 324 323 324 324 324 324 323 321 320 319 319 319 319 318 318 318 318 318 319 319 320 320 320 321 321 321 321 321 321 321 320 320 319 319 318 318 316 315 314 313 311 310 309 307 306 305 305 304 304 302 300 299 300 301 301 301 300 299 300 301 301 301 302 302 301 301 300 299 297 294
207 206 206 207 208 212 225 257 304 325 328 327 326 326 326 325 325 325 325 324 323 322 321 320 319 318 318 318 318 317 317 317 318 318 319 319 319 320 320 320 320 320 320 320 320 320 319 319 318 318 317 316 315 314 313 311 310 309 308 307 306 304 303 301 300 299 297 297 298 299 300 300 300 299 300 301 303 304 304 302 300 299 299 300 300
208 209 210 209 211 217 229 254 293 316 323 325 327 327 326 325 326 325 325 324 323 322 320 319 318 318 317 317 317 317 317 317 317 318 318 318 319 319 319 319 319 319 319 319 319 319 318 318 317 316 315 314 313 312 311 310 309 308 308 307 305 304 302 301 299 297 295 294 296 297 299 301 302 303 302 301 301 301 302 300 298 298 299 299 300
209 211 212 212 214 221 230 248 278 303 317 323 325 325 323 323 324 324 324 325 324 322 320 319 317 316 315 315 315 316 316 316 317 317 318 318 318 318 318 318 318 319 319 319 318 318 317 317 316 315 314 312 311 310 309 308 307 306 305 304 303 301 300 298 297 295 294 294 294 295 297 299 301 304 305 304 300 297 299 301 300 300 299 296 296
211 212 214 215 218 223 231 248 271 291 306 315 319 322 322 322 322 323 324 324 324 322 319 317 315 313 312 313 313 314 314 315 315 316 317 317 317 317 317 318 318 319 319 318 318 317 316 316 315 314 312 311 311 310 309 308 307 305 303 301 299 297 296 295 296 296 296 296 297 297 299 301 302 303 304 304 302 299 300 299 298 298 300 298 296
212 215 216 217 221 226 236 250 265 282 296 307 316 319 321 321 321 322 323 324 323 321 317 315 313 311 310 310 310 312 312 313 314 315 315 316 316 316 317 317 318 318 318 317 317 317 316 315 314 313 312 312 311 310 309 308 306 303 301 298 296 294 293 294 296 298 299 299 299 301 302 302 304 306 305 304 301 298 297 294 290 290 292 291 287
214 217 219 220 224 230 240 250 262 277 291 304 314 317 317 318 320 321 322 322 321 319 316 313 311 309 308 309 309 310 311 312 314 315 315 316 316 316 316 316 317 317 317 316 316 315 315 314 313 313 313 313 312 310 309 307 304 301 298 296 294 292 292 293 296 297 298 297 297 301 301 300 302 304 304 304 303 301 301 300 295 294 294 293 289
216 219 221 224 228 234 243 251 262 276 291 305 312 312 311 313 317 319 320 321 319 317 314 312 309 308 307 308 309 310 311 313 314 315 315 316 316 316 316 316 316 316 316 315 315 314 314 313 313 313 313 313 311 310 309 306 303 299 295 293 292 290 290 294 296 298 298 297 296 298 297 296 298 299 299 302 303 302 302 302 300 299 299 298 296
220 222 223 227 231 237 246 254 264 277 293 306 307 306 306 310 315 317 319 320 318 315 313 310 308 307 306 307 308 309 311 313 314 315 316 316 316 315 315 315 316 315 315 314 314 314 313 313 313 313 313 312 312 312 311 307 302 298 294 292 292 293 298 302 300 298 296 294 294 294 294 295 297 298 299 302 302 300 299 299 297 295 294 293 292
222 224 226 231 235 241 250 256 266 281 295 302 301 300 303 309 314 317 318 318 316 314 312 309 307 306 306 306 307 309 311 312 314 315 315 315 315 315 314 315 314 314 314 314 314 313 313 313 312 313 313 312 313 314 311 305 301 298 295 296 298 304 312 314 309 303 298 295 293 293 295 295 293 294 297 299 300 300 300 301 299 295 291 290 290
224 227 230 235 239 245 252 258 268 282 292 296 296 297 303 310 314 315 317 317 315 313 310 307 306 306 306 306 307 309 311 312 313 314 315 315 315 314 314 314 314 314 314 313 313 313 312 313 313 313 313 314 315 316 310 303 300 300 302 306 311 316 318 318 317 315 310 303 298 298 302 300 293 293 297 300 301 302 302 302 300 296 292 291 291
226 230 233 239 244 248 253 260 269 280 288 291 294 298 304 309 312 314 315 315 314 312 309 306 305 305 305 305 306 309 311 312 313 314 315 315 315 314 314 314 314 313 312 312 313 313 313 313 313 314 315 316 316 314 309 304 303 304 307 312 315 316 314 313 316 317 313 307 300 299 302 301 297 296 297 299 298 297 297 295 295 294 293 293 292
228 232 237 242 247 250 254 261 268 278 285 290 295 300 304 307 309 312 314 314 313 312 308 306 305 305 305 305 306 308 311 312 313 314 315 316 315 315 315 314 313 312 312 313 313 313 314 314 315 315 316 316 316 315 314 310 305 304 307 309 310 310 308 309 312 312 311 307 301 297 296 297 297 296 295 293 291 291 292 292 293 294 295 294 292
230 234 240 245 249 252 255 260 268 277 285 292 297 300 302 304 308 311 313 313 313 311 307 305 304 305 305 306 306 308 310 312 313 314 316 316 316 315 314 313 312 312 312 313 313 314 314 314 315 316 317 318 318 319 317 309 302 301 303 303 303 302 303 306 308 307 306 304 300 296 294 293 292 289 286 287 288 290 291 291 292 293 292 291 291
231 235 242 247 250 253 255 259 268 278 287 294 296 297 299 303 306 310 311 311 311 309 305 303 303 304 304 305 307 308 309 312 313 315 316 316 315 314 312 311 310 311 312 312 312 312 311 313 316 318 320 320 318 314 307 301 297 297 297 296 296 297 301 306 308 306 305 304 301 298 295 292 290 288 289 293 297 296 290 286 288 289 287 286 287
233 236 244 249 251 254 255 259 269 280 288 292 293 294 298 302 305 307 309 309 309 306 303 301 302 303 303 305 306 307 309 311 313 314 315 314 313 312 311 310 310 310 310 309 309 310 313 315 318 321 322 319 311 304 300 297 296 295 295 295 296 299 303 307 307 306 305 305 304 302 299 295 293 294 298 302 304 301 294 288 286 283 281 282 284
235 238 244 249 252 254 255 260 271 281 286 289 290 294 298 300 303 305 306 306 306 303 300 300 301 301 303 304 305 306 308 311 312 313 313 313 312 311 309 308 307 307 308 309 311 313 315 317 319 320 319 314 307 302 301 301 301 301 300 299 299 301 304 306 305 303 301 298 298 297 294 292 293 296 300 301 301 299 298 295 291 283 278 279 281
235 239 246 250 253 254 255 261 272 280 284 286 289 293 297 299 301 303 304 304 303 300 299 300 300 301 302 303 304 307 308 310 311 312 312 312 311 309 305 304 304 306 308 309 310 312 316 317 316 314 312 311 309 305 304 305 306 303 301 300 298 298 300 301 299 294 292 291 291 291 290 291 292 294 296 297 296 297 297 298 297 290 279 276 278
236 242 247 251 253 253 256 264 274 279 282 285 289 292 295 297 299 301 302 302 300 298 298 299 299 300 301 302 304 307 308 309 310 311 311 310 308 304 301 300 302 305 306 306 308 311 313 312 309 310 315 318 314 308 305 303 299 295 293 294 293 291 291 290 290 289 289 289 289 289 290 290 289 290 291 292 293 295 295 296 298 296 288 281 280
240 244 249 251 252 252 257 266 274 277 280 285 289 291 293 295 298 300 301 300 298 297 298 298 298 299 301 302 304 306 307 309 309 309 309 307 304 300 297 298 301 303 304 306 308 310 308 306 307 312 315 312 306 301 300 299 293 290 290 291 291 291 291 291 292 293 293 292 291 291 292 292 291 289 288 290 292 294 295 295 297 299 298 293 288
242 246 249 250 250 253 260 268 272 275 280 286 288 290 292 296 299 300 300 298 297 297 297 298 298 299 301 302 304 306 307 308 309 309 307 304 300 298 297 299 304 308 307 305 304 304 304 305 306 306 304 301 298 297 298 298 295 294 295 294 294 295 297 298 299 299 299 298 298 298 297 295 294 293 292 293 295 296 297 297 299 302 302 300 297
244 248 250 250 251 255 261 266 270 274 281 286 288 290 293 296 298 299 298 297 296 297 297 297 298 300 302 303 304 306 308 310 313 311 304 300 299 298 300 305 312 315 308 300 298 300 304 306 306 305 306 307 307 307 308 308 306 303 300 298 297 297 297 298 299 300 302 304 304 303 301 299 298 297 296 297 297 299 301 304 304 304 304 304 305
246 248 248 249 250 253 258 263 269 275 281 285 288 291 294 296 297 298 297 296 296 296 297 297 299 301 302 303 304 306 308 311 313 308 302 300 298 298 305 315 320 314 303 300 302 307 312 314 313 314 315 316 316 316 317 317 315 312 307 303 302 301 302 303 304 304 305 306 305 304 303 301 299 298 298 299 300 301 304 307 307 306 306 307 306
245 246 246 246 247 251 256 262 268 274 278 283 288 292 294 296 296 296 295 295 295 296 296 297 299 301 301 302 303 304 306 311 312 307 302 301 301 306 318 323 318 309 305 308 314 319 321 321 320 320 321 321 320 320 320 320 319 318 317 315 313 312 311 310 310 309 308 307 306 305 304 303 302 302 301 302 301 301 304 307 307 306 306 304 299
245 245 244 245 246 250 256 261 267 271 276 282 288 292 293 294 295 294 294 294 294 295 296 297 299 300 300 300 301 302 304 310 312 307 304 304 308 318 325 320 311 307 308 312 317 322 324 324 324 325 323 322 321 320 321 324 326 328 329 329 327 325 322 319 318 316 313 311 309 308 308 308 307 306 305 304 303 303 306 307 304 301 299 296 291
245 243 243 244 247 250 255 261 266 270 275 282 288 291 292 293 293 292 292 293 294 295 295 296 297 296 296 296 297 299 304 310 312 307 305 305 309 317 318 311 304 303 305 310 317 322 325 326 327 327 325 324 325 327 330 335 338 340 343 343 341 338 334 330 327 325 323 320 317 315 314 313 312 313 312 310 309 309 309 308 304 302 300 294 288
244 243 244 245 246 249 255 261 266 271 278 285 288 290 291 291 291 291 291 292 293 293 294 294 295 295 295 296 297 300 305 309 309 305 301 299 302 307 303 296 296 300 304 310 317 322 325 327 327 327 328 329 332 336 341 346 349 351 352 351 348 346 344 341 338 335 332 328 326 324 323 321 322 323 322 319 318 316 314 311 309 306 301 294 289
246 246 246 246 246 249 255 262 269 276 282 286 288 289 289 289 289 290 290 291 291 292 293 294 294 294 294 295 296 298 301 303 301 297 294 294 297 296 291 290 297 304 308 312 317 321 324 326 325 326 330 334 339 344 348 350 351 353 354 354 351 349 349 350 348 344 340 337 336 336 336 335 333 331 329 326 324 321 318 317 316 311 303 295 293
247 247 246 244 245 250 257 265 273 279 283 286 288 288 288 286 286 288 289 290 292 292 291 291 290 289 289 289 290 293 295 295 291 289 290 291 290 288 289 296 305 307 307 312 319 322 322 322 323 328 333 339 344 348 350 351 352 353 353 352 352 351 352 355 355 353 352 352 352 350 346 342 338 335 331 329 325 322 321 320 320 318 310 301 298
247 246 244 243 245 252 260 268 274 279 283 287 288 287 286 285 285 285 287 288 290 290 289 288 286 285 285 286 286 289 291 290 286 285 285 283 282 285 292 301 304 302 306 315 319 317 317 319 324 329 336 341 345 349 352 354 354 353 352 350 349 350 354 358 0 2 4 3 359 353 348 344 341 337 334 331 327 325 324 322 323 323 314 306 303
243 242 241 241 246 254 262 269 274 280 285 286 285 284 284 284 285 287 287 287 287 285 284 284 284 283 283 284 285 286 286 284 282 281 278 276 280 288 296 299 299 301 308 314 314 313 315 319 325 330 336 341 344 347 351 353 354 354 352 349 347 348 354 2 7 9 9 7 0 355 351 348 345 341 338 334 331 329 327 326 326 324 319 316 314
239 239 239 241 247 256 264 269 275 281 283 282 282 282 282 284 286 288 289 289 286 282 278 276 278 281 281 282 283 284 283 280 278 275 274 277 285 292 294 294 297 304 309 310 312 313 315 320 326 331 334 338 341 343 346 350 352 353 351 348 347 348 355 6 13 14 11 7 2 358 355 352 349 346 342 337 335 334 332 331 330 327 324 323 320
236 236 238 243 250 259 265 270 276 280 280 279 279 280 281 284 286 287 289 289 287 284 279 273 272 275 278 280 281 279 278 277 275 272 274 281 288 290 288 290 297 305 308 310 312 314 317 321 325 327 331 334 337 339 342 346 348 349 348 347 347 348 355 7 13 9 5 3 1 359 357 354 352 349 345 341 339 337 335 334 333 330 327 324 319
233 235 240 247 255 262 267 271 275 276 275 276 277 279 282 284 286 287 287 286 284 283 282 279 274 273 276 279 279 277 275 275 274 274 277 282 285 284 286 292 300 305 308 312 314 315 316 319 321 324 329 333 336 338 340 342 344 346 346 346 345 346 354 5 8 1 357 358 359 359 359 357 355 352 348 344 342 340 338 337 335 331 328 326 323
231 236 243 251 257 262 267 271 272 272 273 274 277 279 282 284 285 285 284 283 282 281 281 281 279 277 276 276 277 277 274 271 271 273 276 279 280 281 284 291 297 301 306 308 311 313 315 317 321 325 328 331 334 336 337 338 341 343 344 345 346 345 350 0 4 359 356 357 358 359 359 358 356 354 351 348 345 342 339 338 336 334 333 331 329
231 238 245 252 257 262 266 267 268 269 271 274 277 279 282 282 282 282 280 279 280 280 280 280 281 280 278 277 277 277 274 270 267 268 269 271 275 278 282 287 292 296 300 302 306 309 312 315 319 322 323 326 330 333 335 336 339 342 343 344 345 344 345 353 0 359 355 355 356 357 357 356 355 354 353 350 348 344 341 340 339 338 337 335 333
235 242 247 252 257 261 263 264 266 268 271 274 277 279 279 278 277 277 277 277 278 278 278 279 280 279 278 278 278 278 276 272 267 264 263 265 270 276 282 287 290 292 294 297 300 303 306 310 314 316 319 322 325 329 332 333 335 339 342 343 343 342 342 347 354 356 353 352 353 354 354 353 353 353 353 351 348 346 344 342 341 339 338 337 337
239 244 249 253 256 259 260 261 265 268 271 274 275 274 273 272 272 272 274 275 276 276 276 277 278 277 277 278 279 279 279 277 273 268 266 267 271 275 280 284 286 287 289 291 293 296 299 304 308 311 314 318 321 325 328 329 331 335 339 340 340 340 339 342 347 350 350 349 349 350 351 351 351 351 351 349 348 348 347 344 342 340 338 337 338
243 248 252 254 255 257 258 260 263 266 268 270 269 267 267 268 269 270 272 273 274 274 274 275 276 275 276 277 277 278 279 281 280 277 274 274 275 277 279 281 283 285 286 288 290 293 295 299 303 306 310 314 317 320 322 323 326 330 333 335 338 338 338 338 341 344 345 346 348 349 349 349 349 349 348 348 347 348 347 344 343 342 340 337 338
246 249 251 251 252 255 257 259 261 263 263 262 261 262 263 265 266 268 271 272 273 273 274 274 274 273 273 275 276 276 279 281 281 281 280 278 278 278 279 280 282 283 285 287 289 291 294 296 299 302 306 309 312 314 316 318 320 323 326 330 332 334 335 335 336 339 342 344 346 348 348 347 347 347 346 347 347 346 346 346 344 343 342 340 340
247 248 249 250 252 254 256 257 258 259 257 256 256 258 260 262 264 267 270 271 272 273 274 274 274 273 271 272 273 275 277 278 279 280 280 279 278 278 278 278 280 282 284 286 288 290 293 295 297 299 302 304 306 308 310 312 314 317 319 323 325 328 330 331 331 333 337 339 343 347 347 346 346 345 344 345 345 344 345 346 345 343 343 343 342
246 248 249 250 251 252 253 253 253 252 250 251 252 254 257 260 263 266 268 270 271 272 273 274 274 274 273 272 272 274 275 276 277 279 279 278 278 278 277 278 279 281 283 285 286 288 291 293 295 297 298 299 300 302 303 305 308 310 312 315 318 321 324 325 325 327 329 331 337 343 344 343 344 344 343 343 343 343 343 344 344 345 345 345 343
246 247 248 249 249 250 249 247 246 246 246 247 249 253 256 260 262 265 267 269 270 271 273 274 275 276 276 275 274 274 275 276 276 277 278 278 278 278 278 279 280 281 282 284 285 287 289 291 293 294 295 296 296 297 297 299 300 302 305 308 311 314 317 319 320 321 321 322 328 336 339 339 341 343 342 341 341 341 341 341 343 345 346 346 346
244 245 246 245 244 244 243 243 242 242 242 245 248 251 254 258 261 264 266 269 271 273 274 275 276 277 277 276 276 276 276 276 277 277 278 278 278 279 279 280 280 282 283 284 285 287 288 289 290 291 293 293 294 294 294 295 295 296 298 301 303 306 309 311 314 315 316 317 322 330 334 335 337 339 340 340 339 339 339 340 341 343 345 347 347
243 243 242 241 240 239 239 239 239 239 241 244 248 251 254 258 261 264 267 270 272 274 275 275 275 276 275 275 276 276 276 276 277 277 277 278 278 279 279 280 282 284 285 286 287 287 288 289 290 290 291 292 292 292 293 293 293 293 294 295 297 300 302 304 308 310 311 312 316 323 327 329 332 335 337 338 339 339 339 339 340 342 344 346 347
241 240 239 238 236 235 236 236 237 240 243 246 249 252 255 259 262 266 270 272 273 273 274 274 274 274 274 274 276 276 276 277 277 277 277 278 279 279 281 282 284 286 288 288 289 289 289 290 290 290 291 292 292 292 293 293 293 293 293 293 293 294 295 297 301 304 305 305 308 312 315 318 324 329 333 335 336 337 337 338 339 342 344 345 345
239 238 236 234 233 233 235 237 239 243 246 248 251 254 257 261 265 269 271 273 273 273 273 273 272 272 273 274 275 276 276 277 277 277 277 278 279 280 282 284 286 287 289 290 291 292 292 292 293 292 292 293 293 293 293 294 294 293 293 293 292 292 292 292 294 297 297 296 296 300 305 310 316 324 330 332 332 334 336 338 339 341 343 344 344
238 237 235 234 233 234 237 240 242 245 248 250 253 256 260 264 269 272 273 274 274 273 271 270 270 270 271 272 274 275 276 277 278 279 279 281 282 283 284 286 287 288 289 291 292 293 294 294 294 294 294 294 294 294 295 295 295 295 295 294 293 292 291 290 290 292 292 288 287 292 299 305 311 320 327 329 329 331 334 337 338 339 341 342 342